Time,TemperatureF,DewpointF,PressureIn,WindDirection,WindDirectionDegrees,WindSpeedMPH,WindSpeedGustMPH,Humidity,HourlyPrecipIn,Conditions,Clouds,dailyrainin,SoftwareType,DateUTC
2013-06-21 00:02:00,53.3,48.6,30.09,ESE,113,0.0,1.8,84,0.00,,,0.00,WUHU216HW,2013-06-21 07:02:00,
2013-06-21 00:07:00,53.3,48.6,30.09,ESE,113,0.0,1.8,84,0.00,,,0.00,WUHU216HW,2013-06-21 07:07:00,
2013-06-21 00:12:00,53.3,48.6,30.10,ESE,113,0.0,0.0,84,0.00,,,0.00,WUHU216HW,2013-06-21 07:12:00,
2013-06-21 00:17:00,53.3,48.9,30.10,ENE,68,1.1,1.1,85,0.00,,,0.00,WUHU216HW,2013-06-21 07:17:00,
2013-06-21 00:22:00,53.3,48.9,30.10,SE,135,1.8,2.5,85,0.00,,,0.00,WUHU216HW,2013-06-21 07:22:00,
2013-06-21 00:27:00,53.1,48.7,30.10,ENE,68,1.3,2.5,85,0.00,,,0.00,WUHU216HW,2013-06-21 07:27:00,
2013-06-21 00:32:00,53.1,48.7,30.10,ENE,68,2.5,2.5,85,0.00,,,0.00,WUHU216HW,2013-06-21 07:32:00,
2013-06-21 00:37:00,52.9,48.5,30.10,East,90,2.2,2.5,85,0.00,,,0.00,WUHU216HW,2013-06-21 07:37:00,
2013-06-21 00:42:00,52.9,48.5,30.10,ENE,68,1.3,2.5,85,0.00,,,0.00,WUHU216HW,2013-06-21 07:42:00,
2013-06-21 00:47:00,52.9,48.5,30.10,ENE,68,0.0,1.8,85,0.00,,,0.00,WUHU216HW,2013-06-21 07:47:00,
2013-06-21 00:52:00,52.9,48.5,30.10,ENE,68,0.0,1.3,85,0.00,,,0.00,WUHU216HW,2013-06-21 07:52:00,
2013-06-21 00:57:00,52.9,48.5,30.10,ENE,68,0.0,0.0,85,0.00,,,0.00,WUHU216HW,2013-06-21 07:57:00,
2013-06-21 01:02:00,52.9,48.5,30.10,ENE,68,0.0,0.4,85,0.00,,,0.00,WUHU216HW,2013-06-21 08:02:00,
2013-06-21 01:07:00,52.9,48.5,30.10,SSE,158,0.0,0.7,85,0.00,,,0.00,WUHU216HW,2013-06-21 08:07:00,
2013-06-21 01:12:00,52.9,48.5,30.11,SSE,158,0.0,0.7,85,0.00,,,0.00,WUHU216HW,2013-06-21 08:12:00,
2013-06-21 01:17:00,52.9,48.5,30.11,SSE,158,0.0,0.0,85,0.00,,,0.00,WUHU216HW,2013-06-21 08:17:00,
2013-06-21 01:22:00,52.9,48.8,30.11,ESE,113,1.1,1.1,86,0.00,,,0.00,WUHU216HW,2013-06-21 08:22:00,
2013-06-21 01:27:00,52.9,48.5,30.11,SE,135,0.0,1.3,85,0.00,,,0.00,WUHU216HW,2013-06-21 08:27:00,
2013-06-21 01:32:00,52.9,48.8,30.11,East,90,0.4,1.3,86,0.00,,,0.00,WUHU216HW,2013-06-21 08:32:00,
2013-06-21 01:37:00,52.7,48.6,30.11,East,90,0.9,1.8,86,0.00,,,0.00,WUHU216HW,2013-06-21 08:37:00,
2013-06-21 01:42:00,52.7,48.6,30.11,ENE,68,0.4,1.8,86,0.00,,,0.00,WUHU216HW,2013-06-21 08:42:00,
2013-06-21 01:47:00,52.7,48.6,30.11,NE,45,0.9,2.5,86,0.00,,,0.00,WUHU216HW,2013-06-21 08:47:00,
2013-06-21 01:52:00,52.7,48.6,30.11,ENE,68,0.4,2.5,86,0.00,,,0.00,WUHU216HW,2013-06-21 08:52:00,
2013-06-21 01:57:00,52.7,48.6,30.11,ENE,68,0.4,1.1,86,0.00,,,0.00,WUHU216HW,2013-06-21 08:57:00,
2013-06-21 02:02:00,52.7,48.6,30.11,ENE,68,0.0,1.1,86,0.00,,,0.00,WUHU216HW,2013-06-21 09:02:00,
2013-06-21 02:07:00,52.7,48.6,30.11,ENE,68,0.0,0.9,86,0.00,,,0.00,WUHU216HW,2013-06-21 09:07:00,
2013-06-21 02:12:00,52.7,48.6,30.11,ENE,68,0.2,1.1,86,0.00,,,0.00,WUHU216HW,2013-06-21 09:12:00,
2013-06-21 02:17:00,52.6,48.4,30.11,ENE,68,0.0,1.1,86,0.00,,,0.00,WUHU216HW,2013-06-21 09:17:00,
2013-06-21 02:22:00,52.6,48.4,30.11,ENE,68,0.0,0.0,86,0.00,,,0.00,WUHU216HW,2013-06-21 09:22:00,
2013-06-21 02:27:00,52.6,48.4,30.11,ENE,68,0.0,0.0,86,0.00,,,0.00,WUHU216HW,2013-06-21 09:27:00,
2013-06-21 02:32:00,52.6,48.4,30.11,ESE,113,0.9,1.1,86,0.00,,,0.00,WUHU216HW,2013-06-21 09:32:00,
2013-06-21 02:37:00,52.4,48.2,30.11,ESE,113,0.9,1.8,86,0.00,,,0.00,WUHU216HW,2013-06-21 09:37:00,
2013-06-21 02:42:00,52.2,48.1,30.11,ENE,68,0.4,1.8,86,0.00,,,0.00,WUHU216HW,2013-06-21 09:42:00,
2013-06-21 02:47:00,52.2,48.1,30.11,ENE,68,1.1,1.8,86,0.00,,,0.00,WUHU216HW,2013-06-21 09:47:00,
2013-06-21 02:52:00,52.2,48.1,30.11,ESE,113,0.9,2.0,86,0.00,,,0.00,WUHU216HW,2013-06-21 09:52:00,
2013-06-21 02:57:00,52.2,48.1,30.11,ENE,68,0.0,2.0,86,0.00,,,0.00,WUHU216HW,2013-06-21 09:57:00,
2013-06-21 03:02:00,52.2,48.1,30.12,ENE,68,1.1,1.1,86,0.00,,,0.00,WUHU216HW,2013-06-21 10:02:00,
2013-06-21 03:07:00,52.2,48.1,30.12,ENE,68,0.0,1.1,86,0.00,,,0.00,WUHU216HW,2013-06-21 10:07:00,
2013-06-21 03:12:00,52.4,48.2,30.12,NE,45,1.8,1.8,86,0.00,,,0.00,WUHU216HW,2013-06-21 10:12:00,
2013-06-21 03:17:00,52.2,48.1,30.12,ENE,68,2.5,2.5,86,0.00,,,0.00,WUHU216HW,2013-06-21 10:17:00,
2013-06-21 03:22:00,52.2,48.1,30.12,NE,45,1.1,2.5,86,0.00,,,0.00,WUHU216HW,2013-06-21 10:22:00,
2013-06-21 03:27:00,52.2,48.1,30.11,East,90,0.4,2.0,86,0.00,,,0.00,WUHU216HW,2013-06-21 10:27:00,
2013-06-21 03:32:00,52.2,48.1,30.11,SSE,158,0.2,1.1,86,0.00,,,0.00,WUHU216HW,2013-06-21 10:32:00,
2013-06-21 03:37:00,52.2,48.1,30.11,SSE,158,0.4,1.1,86,0.00,,,0.00,WUHU216HW,2013-06-21 10:37:00,
2013-06-21 03:43:00,52.4,48.6,30.11,ENE,68,0.9,1.1,87,0.00,,,0.00,WUHU216HW,2013-06-21 10:43:00,
2013-06-21 03:48:00,52.2,48.4,30.11,ESE,113,0.4,0.9,87,0.00,,,0.00,WUHU216HW,2013-06-21 10:48:00,
2013-06-21 03:53:00,52.4,48.6,30.11,NNE,23,0.7,1.1,87,0.00,,,0.00,WUHU216HW,2013-06-21 10:53:00,
2013-06-21 03:58:00,52.4,48.6,30.11,NNE,23,0.0,1.1,87,0.00,,,0.00,WUHU216HW,2013-06-21 10:58:00,
2013-06-21 04:03:00,52.4,48.6,30.11,SSW,203,0.9,0.9,87,0.00,,,0.00,WUHU216HW,2013-06-21 11:03:00,
2013-06-21 04:08:00,52.4,48.6,30.11,WSW,248,0.0,0.9,87,0.00,,,0.00,WUHU216HW,2013-06-21 11:08:00,
2013-06-21 04:13:00,52.4,48.6,30.11,North,0,0.7,0.7,87,0.00,,,0.00,WUHU216HW,2013-06-21 11:13:00,
2013-06-21 04:18:00,52.2,48.4,30.12,NNW,338,0.4,1.1,87,0.00,,,0.00,WUHU216HW,2013-06-21 11:18:00,
2013-06-21 04:23:00,52.2,48.4,30.12,NW,315,1.1,1.1,87,0.00,,,0.00,WUHU216HW,2013-06-21 11:23:00,
2013-06-21 04:28:00,52.2,48.4,30.12,West,270,0.7,1.8,87,0.00,,,0.00,WUHU216HW,2013-06-21 11:28:00,
2013-06-21 04:33:00,52.2,48.4,30.12,SE,135,1.8,2.0,87,0.00,,,0.00,WUHU216HW,2013-06-21 11:33:00,
2013-06-21 04:38:00,52.2,48.4,30.12,SE,135,0.0,2.0,87,0.00,,,0.00,WUHU216HW,2013-06-21 11:38:00,
2013-06-21 04:43:00,52.2,48.4,30.12,East,90,0.0,1.8,87,0.00,,,0.00,WUHU216HW,2013-06-21 11:43:00,
2013-06-21 04:48:00,52.2,48.4,30.12,SE,135,0.7,2.5,87,0.00,,,0.00,WUHU216HW,2013-06-21 11:48:00,
2013-06-21 04:53:00,52.2,48.4,30.12,NE,45,2.5,2.5,87,0.00,,,0.00,WUHU216HW,2013-06-21 11:53:00,
2013-06-21 04:58:00,52.2,48.4,30.12,SW,225,0.0,2.5,87,0.00,,,0.00,WUHU216HW,2013-06-21 11:58:00,
2013-06-21 05:03:00,52.2,48.4,30.12,NE,45,0.4,1.8,87,0.00,,,0.00,WUHU216HW,2013-06-21 12:03:00,
2013-06-21 05:08:00,52.2,48.4,30.12,NE,45,0.0,1.3,87,0.00,,,0.00,WUHU216HW,2013-06-21 12:08:00,
2013-06-21 05:13:00,52.2,48.4,30.12,SE,135,2.2,2.2,87,0.00,,,0.00,WUHU216HW,2013-06-21 12:13:00,
2013-06-21 05:18:00,52.2,48.4,30.12,SE,135,1.1,2.5,87,0.00,,,0.00,WUHU216HW,2013-06-21 12:18:00,
2013-06-21 05:23:00,52.2,48.4,30.12,ESE,113,1.1,2.5,87,0.00,,,0.00,WUHU216HW,2013-06-21 12:23:00,
2013-06-21 05:28:00,52.2,48.4,30.13,East,90,1.6,2.0,87,0.00,,,0.00,WUHU216HW,2013-06-21 12:28:00,
2013-06-21 05:33:00,52.2,48.7,30.13,East,90,0.0,2.5,88,0.00,,,0.00,WUHU216HW,2013-06-21 12:33:00,
2013-06-21 05:38:00,52.2,48.7,30.13,NE,45,0.0,2.5,88,0.00,,,0.00,WUHU216HW,2013-06-21 12:38:00,
2013-06-21 05:43:00,52.4,48.9,30.13,East,90,1.1,1.3,88,0.00,,,0.00,WUHU216HW,2013-06-21 12:43:00,
2013-06-21 05:48:00,52.4,48.9,30.13,SE,135,2.0,2.9,88,0.00,,,0.00,WUHU216HW,2013-06-21 12:48:00,
2013-06-21 05:53:00,52.4,48.9,30.13,SE,135,0.7,2.9,88,0.00,,,0.00,WUHU216HW,2013-06-21 12:53:00,
2013-06-21 05:58:00,52.6,49.1,30.13,ESE,113,1.3,1.8,88,0.00,,,0.00,WUHU216HW,2013-06-21 12:58:00,
2013-06-21 06:03:00,52.6,49.1,30.13,SSE,158,0.4,2.5,88,0.00,,,0.00,WUHU216HW,2013-06-21 13:03:00,
2013-06-21 06:08:00,52.6,49.1,30.13,SSE,158,1.6,2.5,88,0.00,,,0.00,WUHU216HW,2013-06-21 13:08:00,
2013-06-21 06:13:00,52.7,49.2,30.13,SSE,158,1.6,2.9,88,0.00,,,0.00,WUHU216HW,2013-06-21 13:13:00,
2013-06-21 06:18:00,52.9,49.4,30.14,SE,135,1.1,2.9,88,0.00,,,0.00,WUHU216HW,2013-06-21 13:18:00,
2013-06-21 06:23:00,52.9,49.2,30.14,ENE,68,1.8,3.4,87,0.00,,,0.00,WUHU216HW,2013-06-21 13:23:00,
2013-06-21 06:28:00,52.9,49.2,30.14,SE,135,3.6,3.6,87,0.00,,,0.00,WUHU216HW,2013-06-21 13:28:00,
2013-06-21 06:33:00,52.9,49.4,30.14,SE,135,1.8,3.6,88,0.00,,,0.00,WUHU216HW,2013-06-21 13:33:00,
2013-06-21 06:38:00,53.1,49.6,30.14,ESE,113,1.1,2.7,88,0.00,,,0.00,WUHU216HW,2013-06-21 13:38:00,
2013-06-21 06:43:00,53.3,49.8,30.14,SSE,158,3.6,5.4,88,0.00,,,0.00,WUHU216HW,2013-06-21 13:43:00,
2013-06-21 06:48:00,53.3,49.5,30.15,ENE,68,0.4,5.4,87,0.00,,,0.00,WUHU216HW,2013-06-21 13:48:00,
2013-06-21 06:53:00,53.3,49.5,30.15,SE,135,2.9,5.4,87,0.00,,,0.00,WUHU216HW,2013-06-21 13:53:00,
2013-06-21 06:58:00,53.3,49.5,30.15,SSE,158,1.1,5.4,87,0.00,,,0.00,WUHU216HW,2013-06-21 13:58:00,
2013-06-21 07:03:00,53.5,49.7,30.15,SE,135,2.5,4.3,87,0.00,,,0.00,WUHU216HW,2013-06-21 14:03:00,
2013-06-21 07:08:00,53.5,49.7,30.15,ESE,113,3.6,4.7,87,0.00,,,0.00,WUHU216HW,2013-06-21 14:08:00,
2013-06-21 07:14:00,53.5,49.7,30.16,SE,135,2.0,4.7,87,0.00,,,0.00,WUHU216HW,2013-06-21 14:14:00,
2013-06-21 07:19:00,53.5,49.7,30.15,SE,135,0.4,2.2,87,0.00,,,0.00,WUHU216HW,2013-06-21 14:19:00,
2013-06-21 07:24:00,53.6,49.9,30.15,NW,315,0.7,2.7,87,0.00,,,0.00,WUHU216HW,2013-06-21 14:24:00,
2013-06-21 07:29:00,53.8,50.1,30.16,SE,135,0.7,3.4,87,0.00,,,0.00,WUHU216HW,2013-06-21 14:29:00,
2013-06-21 07:34:00,54.0,50.2,30.15,SE,135,3.4,3.4,87,0.00,,,0.00,WUHU216HW,2013-06-21 14:34:00,
2013-06-21 07:39:00,54.0,50.2,30.16,ESE,113,2.7,5.1,87,0.00,,,0.00,WUHU216HW,2013-06-21 14:39:00,
2013-06-21 07:44:00,54.2,50.4,30.16,SE,135,3.4,5.1,87,0.00,,,0.00,WUHU216HW,2013-06-21 14:44:00,
2013-06-21 07:49:00,54.4,50.6,30.17,ESE,113,1.6,3.4,87,0.00,,,0.00,WUHU216HW,2013-06-21 14:49:00,
2013-06-21 07:54:00,54.4,50.6,30.17,SE,135,2.0,4.9,87,0.00,,,0.00,WUHU216HW,2013-06-21 14:54:00,
2013-06-21 07:59:00,54.5,50.4,30.17,SSE,158,0.7,4.9,86,0.00,,,0.00,WUHU216HW,2013-06-21 14:59:00,
2013-06-21 08:04:00,54.5,50.4,30.17,SSE,158,2.7,3.6,86,0.00,,,0.00,WUHU216HW,2013-06-21 15:04:00,
2013-06-21 08:09:00,54.5,50.4,30.17,SE,135,4.3,4.3,86,0.00,,,0.00,WUHU216HW,2013-06-21 15:09:00,
2013-06-21 08:14:00,54.5,50.4,30.17,South,180,1.8,4.3,86,0.00,,,0.00,WUHU216HW,2013-06-21 15:14:00,
2013-06-21 08:19:00,54.7,50.6,30.18,SE,135,3.1,3.1,86,0.00,,,0.00,WUHU216HW,2013-06-21 15:19:00,
2013-06-21 08:24:00,54.7,50.6,30.18,SSW,203,1.8,3.6,86,0.00,,,0.00,WUHU216HW,2013-06-21 15:24:00,
2013-06-21 08:29:00,55.1,51.0,30.17,SW,225,0.7,3.6,86,0.00,,,0.00,WUHU216HW,2013-06-21 15:29:00,
2013-06-21 08:34:00,55.3,51.1,30.17,SSW,203,0.9,2.7,86,0.00,,,0.00,WUHU216HW,2013-06-21 15:34:00,
2013-06-21 08:39:00,55.6,51.5,30.18,SW,225,1.8,4.7,86,0.00,,,0.00,WUHU216HW,2013-06-21 15:39:00,
2013-06-21 08:44:00,55.8,51.7,30.18,SSE,158,5.4,5.4,86,0.00,,,0.00,WUHU216HW,2013-06-21 15:44:00,
2013-06-21 08:49:00,56.2,51.7,30.17,SSW,203,2.5,5.4,85,0.00,,,0.00,WUHU216HW,2013-06-21 15:49:00,
2013-06-21 08:54:00,56.3,51.8,30.17,SE,135,3.4,5.1,85,0.00,,,0.00,WUHU216HW,2013-06-21 15:54:00,
2013-06-21 08:59:00,56.7,52.2,30.17,WNW,293,3.4,5.1,85,0.00,,,0.00,WUHU216HW,2013-06-21 15:59:00,
2013-06-21 09:04:00,57.2,52.4,30.17,SSE,158,6.0,6.0,84,0.00,,,0.00,WUHU216HW,2013-06-21 16:04:00,
2013-06-21 09:09:00,58.0,53.5,30.17,South,180,1.6,6.0,85,0.00,,,0.00,WUHU216HW,2013-06-21 16:09:00,
2013-06-21 09:14:00,58.5,53.4,30.17,SSE,158,2.7,5.4,83,0.00,,,0.00,WUHU216HW,2013-06-21 16:14:00,
2013-06-21 09:19:00,58.7,53.6,30.17,West,270,1.3,5.4,83,0.00,,,0.00,WUHU216HW,2013-06-21 16:19:00,
2013-06-21 09:24:00,58.7,53.6,30.17,SE,135,3.4,4.7,83,0.00,,,0.00,WUHU216HW,2013-06-21 16:24:00,
2013-06-21 09:29:00,59.0,53.9,30.17,NW,315,1.1,4.9,83,0.00,,,0.00,WUHU216HW,2013-06-21 16:29:00,
2013-06-21 09:34:00,59.2,53.7,30.17,South,180,0.4,4.9,82,0.00,,,0.00,WUHU216HW,2013-06-21 16:34:00,
2013-06-21 09:39:00,59.2,53.7,30.17,SW,225,2.5,3.4,82,0.00,,,0.00,WUHU216HW,2013-06-21 16:39:00,
2013-06-21 09:44:00,59.2,53.7,30.17,SW,225,2.7,4.5,82,0.00,,,0.00,WUHU216HW,2013-06-21 16:44:00,
2013-06-21 09:49:00,59.0,53.3,30.17,SE,135,2.0,4.5,81,0.00,,,0.00,WUHU216HW,2013-06-21 16:49:00,
2013-06-21 09:54:00,59.2,53.5,30.17,WSW,248,4.0,6.3,81,0.00,,,0.00,WUHU216HW,2013-06-21 16:54:00,
2013-06-21 09:59:00,59.4,53.7,30.17,WSW,248,2.0,6.3,81,0.00,,,0.00,WUHU216HW,2013-06-21 16:59:00,
2013-06-21 10:04:00,59.8,54.0,30.18,SSE,158,4.7,5.4,81,0.00,,,0.00,WUHU216HW,2013-06-21 17:04:00,
2013-06-21 10:09:00,59.9,53.8,30.17,ESE,113,0.7,5.4,80,0.00,,,0.00,WUHU216HW,2013-06-21 17:09:00,
2013-06-21 10:15:00,60.1,54.0,30.17,SE,135,2.5,4.0,80,0.00,,,0.00,WUHU216HW,2013-06-21 17:15:00,
2013-06-21 10:20:00,60.1,54.0,30.17,WSW,248,3.8,4.5,80,0.00,,,0.00,WUHU216HW,2013-06-21 17:20:00,
2013-06-21 10:25:00,60.7,54.2,30.18,ESE,113,3.8,5.4,79,0.00,,,0.00,WUHU216HW,2013-06-21 17:25:00,
2013-06-21 10:30:00,60.8,54.4,30.18,East,90,0.2,5.4,79,0.00,,,0.00,WUHU216HW,2013-06-21 17:30:00,
2013-06-21 10:36:00,61.2,54.7,30.18,WSW,248,1.8,4.9,79,0.00,,,0.00,WUHU216HW,2013-06-21 17:36:00,
2013-06-21 10:42:00,61.7,55.2,30.18,SW,225,4.3,5.1,79,0.00,,,0.00,WUHU216HW,2013-06-21 17:42:00,
2013-06-21 10:47:00,62.3,54.5,30.18,SSE,158,5.8,5.8,76,0.00,,,0.00,WUHU216HW,2013-06-21 17:47:00,
2013-06-21 10:52:00,62.5,54.7,30.18,SW,225,0.9,5.8,76,0.00,,,0.00,WUHU216HW,2013-06-21 17:52:00,
2013-06-21 10:57:00,62.5,54.7,30.18,SW,225,4.7,5.1,76,0.00,,,0.00,WUHU216HW,2013-06-21 17:57:00,
2013-06-21 11:02:00,62.8,55.1,30.18,SSW,203,2.0,5.1,76,0.00,,,0.00,WUHU216HW,2013-06-21 18:02:00,
2013-06-21 11:07:00,63.0,55.3,30.19,WSW,248,5.1,6.9,76,0.00,,,0.00,WUHU216HW,2013-06-21 18:07:00,
2013-06-21 11:12:00,63.0,55.3,30.19,ESE,113,3.1,6.9,76,0.00,,,0.00,WUHU216HW,2013-06-21 18:12:00,
2013-06-21 11:18:00,63.2,55.4,30.19,SE,135,2.2,5.4,76,0.00,,,0.00,WUHU216HW,2013-06-21 18:18:00,
2013-06-21 11:23:00,63.4,55.6,30.19,SE,135,2.2,4.7,76,0.00,,,0.00,WUHU216HW,2013-06-21 18:23:00,
2013-06-21 11:28:00,63.5,55.4,30.19,SSE,158,6.7,6.7,75,0.00,,,0.00,WUHU216HW,2013-06-21 18:28:00,
2013-06-21 11:33:00,63.2,54.7,30.19,SE,135,2.2,7.2,74,0.00,,,0.00,WUHU216HW,2013-06-21 18:33:00,
2013-06-21 11:38:00,63.4,54.9,30.19,SE,135,2.9,7.6,74,0.00,,,0.00,WUHU216HW,2013-06-21 18:38:00,
2013-06-21 11:43:00,63.9,55.8,30.19,SE,135,2.7,7.6,75,0.00,,,0.00,WUHU216HW,2013-06-21 18:43:00,
2013-06-21 11:48:00,64.4,55.6,30.19,SSW,203,3.6,6.7,73,0.00,,,0.00,WUHU216HW,2013-06-21 18:48:00,
2013-06-21 11:53:00,64.4,55.6,30.19,SE,135,4.0,6.7,73,0.00,,,0.00,WUHU216HW,2013-06-21 18:53:00,
2013-06-21 11:58:00,64.6,55.8,30.19,WSW,248,5.1,5.1,73,0.00,,,0.00,WUHU216HW,2013-06-21 18:58:00,
2013-06-21 12:03:00,65.3,56.4,30.19,North,0,0.9,5.1,73,0.00,,,0.00,WUHU216HW,2013-06-21 19:03:00,
2013-06-21 12:08:00,65.7,56.4,30.19,SSW,203,5.1,5.4,72,0.00,,,0.00,WUHU216HW,2013-06-21 19:08:00,
2013-06-21 12:13:00,65.9,56.3,30.19,WSW,248,3.8,7.2,71,0.00,,,0.00,WUHU216HW,2013-06-21 19:13:00,
2013-06-21 12:18:00,66.1,56.8,30.19,West,270,4.5,8.3,72,0.00,,,0.00,WUHU216HW,2013-06-21 19:18:00,
2013-06-21 12:23:00,66.2,56.2,30.19,SW,225,6.3,8.9,70,0.00,,,0.00,WUHU216HW,2013-06-21 19:23:00,
2013-06-21 12:28:00,66.1,56.0,30.19,WSW,248,3.1,8.9,70,0.00,,,0.00,WUHU216HW,2013-06-21 19:28:00,
2013-06-21 12:33:00,65.9,55.8,30.19,West,270,5.4,6.7,70,0.00,,,0.00,WUHU216HW,2013-06-21 19:33:00,
2013-06-21 12:38:00,65.9,55.8,30.19,West,270,6.5,6.7,70,0.00,,,0.00,WUHU216HW,2013-06-21 19:38:00,
2013-06-21 12:43:00,66.2,56.2,30.19,SW,225,6.3,6.5,70,0.00,,,0.00,WUHU216HW,2013-06-21 19:43:00,
2013-06-21 12:48:00,66.6,56.5,30.19,SW,225,2.5,6.7,70,0.00,,,0.00,WUHU216HW,2013-06-21 19:48:00,
2013-06-21 12:53:00,67.1,56.6,30.19,NNW,338,1.6,6.7,69,0.00,,,0.00,WUHU216HW,2013-06-21 19:53:00,
2013-06-21 12:58:00,67.5,57.0,30.19,West,270,3.4,6.0,69,0.00,,,0.00,WUHU216HW,2013-06-21 19:58:00,
2013-06-21 13:03:00,67.9,56.9,30.19,SW,225,4.0,6.0,68,0.00,,,0.00,WUHU216HW,2013-06-21 20:03:00,
2013-06-21 13:08:00,68.0,56.7,30.19,WSW,248,3.4,6.3,67,0.00,,,0.00,WUHU216HW,2013-06-21 20:08:00,
2013-06-21 13:13:00,68.4,57.0,30.19,WSW,248,2.2,6.3,67,0.00,,,0.00,WUHU216HW,2013-06-21 20:13:00,
2013-06-21 13:18:00,68.8,56.9,30.19,WSW,248,5.8,5.8,66,0.00,,,0.00,WUHU216HW,2013-06-21 20:18:00,
2013-06-21 13:23:00,68.6,56.7,30.19,WSW,248,4.7,5.8,66,0.00,,,0.00,WUHU216HW,2013-06-21 20:23:00,
2013-06-21 13:28:00,68.2,56.0,30.19,WNW,293,4.0,5.8,65,0.00,,,0.00,WUHU216HW,2013-06-21 20:28:00,
2013-06-21 13:33:00,68.8,56.5,30.19,West,270,5.4,6.0,65,0.00,,,0.00,WUHU216HW,2013-06-21 20:33:00,
2013-06-21 13:38:00,68.9,56.7,30.19,West,270,4.5,6.3,65,0.00,,,0.00,WUHU216HW,2013-06-21 20:38:00,
2013-06-21 13:44:00,68.9,56.7,30.19,WSW,248,5.8,6.9,65,0.00,,,0.00,WUHU216HW,2013-06-21 20:44:00,
2013-06-21 13:49:00,69.1,56.8,30.19,WSW,248,6.9,6.9,65,0.00,,,0.00,WUHU216HW,2013-06-21 20:49:00,
2013-06-21 13:54:00,69.3,57.0,30.19,West,270,3.4,6.9,65,0.00,,,0.00,WUHU216HW,2013-06-21 20:54:00,
2013-06-21 13:59:00,69.1,56.4,30.19,West,270,4.0,6.3,64,0.00,,,0.00,WUHU216HW,2013-06-21 20:59:00,
2013-06-21 14:04:00,69.1,56.8,30.19,WSW,248,1.8,6.3,65,0.00,,,0.00,WUHU216HW,2013-06-21 21:04:00,
2013-06-21 14:09:00,69.3,56.6,30.19,WSW,248,4.0,6.5,64,0.00,,,0.00,WUHU216HW,2013-06-21 21:09:00,
2013-06-21 14:14:00,69.1,56.4,30.19,WSW,248,5.1,6.5,64,0.00,,,0.00,WUHU216HW,2013-06-21 21:14:00,
2013-06-21 14:19:00,68.8,56.1,30.19,WSW,248,5.6,6.3,64,0.00,,,0.00,WUHU216HW,2013-06-21 21:19:00,
2013-06-21 14:24:00,68.8,56.1,30.19,SW,225,5.4,6.3,64,0.00,,,0.00,WUHU216HW,2013-06-21 21:24:00,
2013-06-21 14:29:00,69.1,56.4,30.19,SSE,158,4.3,6.3,64,0.00,,,0.00,WUHU216HW,2013-06-21 21:29:00,
2013-06-21 14:34:00,69.3,56.6,30.19,SSE,158,1.3,4.3,64,0.00,,,0.00,WUHU216HW,2013-06-21 21:34:00,
2013-06-21 14:39:00,69.5,56.4,30.19,South,180,4.3,4.3,63,0.00,,,0.00,WUHU216HW,2013-06-21 21:39:00,
2013-06-21 14:44:00,69.5,55.9,30.19,SSE,158,5.1,5.8,62,0.00,,,0.00,WUHU216HW,2013-06-21 21:44:00,
2013-06-21 14:49:00,69.7,56.1,30.19,SE,135,6.5,6.5,62,0.00,,,0.00,WUHU216HW,2013-06-21 21:49:00,
2013-06-21 14:54:00,69.5,55.9,30.19,SW,225,3.1,6.5,62,0.00,,,0.00,WUHU216HW,2013-06-21 21:54:00,
2013-06-21 14:59:00,70.0,56.9,30.19,SE,135,3.1,5.1,63,0.00,,,0.00,WUHU216HW,2013-06-21 21:59:00,
2013-06-21 15:04:00,69.8,55.9,30.18,ESE,113,1.1,6.9,61,0.00,,,0.00,WUHU216HW,2013-06-21 22:04:00,
2013-06-21 15:09:00,69.5,55.5,30.19,SW,225,1.8,6.9,61,0.00,,,0.00,WUHU216HW,2013-06-21 22:09:00,
2013-06-21 15:14:00,69.3,55.4,30.18,WSW,248,1.3,5.4,61,0.00,,,0.00,WUHU216HW,2013-06-21 22:14:00,
2013-06-21 15:19:00,69.3,55.7,30.19,WSW,248,4.7,5.4,62,0.00,,,0.00,WUHU216HW,2013-06-21 22:19:00,
2013-06-21 15:24:00,69.5,55.9,30.18,SW,225,6.0,7.2,62,0.00,,,0.00,WUHU216HW,2013-06-21 22:24:00,
2013-06-21 15:29:00,69.5,55.9,30.18,WSW,248,3.8,7.2,62,0.00,,,0.00,WUHU216HW,2013-06-21 22:29:00,
2013-06-21 15:34:00,69.5,55.9,30.18,WSW,248,4.0,5.8,62,0.00,,,0.00,WUHU216HW,2013-06-21 22:34:00,
2013-06-21 15:39:00,69.7,56.1,30.18,WSW,248,4.0,5.6,62,0.00,,,0.00,WUHU216HW,2013-06-21 22:39:00,
2013-06-21 15:44:00,69.5,55.9,30.18,WSW,248,5.4,8.1,62,0.00,,,0.00,WUHU216HW,2013-06-21 22:44:00,
2013-06-21 15:49:00,69.3,55.7,30.19,WSW,248,2.0,8.1,62,0.00,,,0.00,WUHU216HW,2013-06-21 22:49:00,
2013-06-21 15:54:00,69.5,55.9,30.19,WSW,248,6.5,6.9,62,0.00,,,0.00,WUHU216HW,2013-06-21 22:54:00,
2013-06-21 15:59:00,69.5,55.9,30.19,WSW,248,3.1,6.9,62,0.00,,,0.00,WUHU216HW,2013-06-21 22:59:00,
2013-06-21 16:04:00,69.7,56.1,30.18,WSW,248,5.6,6.3,62,0.00,,,0.00,WUHU216HW,2013-06-21 23:04:00,
2013-06-21 16:09:00,69.5,55.9,30.18,WSW,248,8.1,8.1,62,0.00,,,0.00,WUHU216HW,2013-06-21 23:09:00,
2013-06-21 16:14:00,69.3,55.7,30.18,West,270,2.5,8.5,62,0.00,,,0.00,WUHU216HW,2013-06-21 23:14:00,
2013-06-21 16:19:00,69.3,55.7,30.18,SW,225,5.4,8.5,62,0.00,,,0.00,WUHU216HW,2013-06-21 23:19:00,
2013-06-21 16:24:00,69.1,55.2,30.18,SSW,203,6.3,6.5,61,0.00,,,0.00,WUHU216HW,2013-06-21 23:24:00,
2013-06-21 16:29:00,69.1,55.5,30.18,West,270,2.0,6.7,62,0.00,,,0.00,WUHU216HW,2013-06-21 23:29:00,
2013-06-21 16:34:00,69.1,55.5,30.17,SW,225,7.8,7.8,62,0.00,,,0.00,WUHU216HW,2013-06-21 23:34:00,
2013-06-21 16:39:00,69.1,55.5,30.17,SW,225,3.1,7.8,62,0.00,,,0.00,WUHU216HW,2013-06-21 23:39:00,
2013-06-21 16:44:00,69.3,55.7,30.18,SW,225,6.0,8.9,62,0.00,,,0.00,WUHU216HW,2013-06-21 23:44:00,
2013-06-21 16:49:00,69.5,55.9,30.17,SW,225,6.9,8.9,62,0.00,,,0.00,WUHU216HW,2013-06-21 23:49:00,
2013-06-21 16:54:00,69.3,55.7,30.17,SW,225,6.9,8.7,62,0.00,,,0.00,WUHU216HW,2013-06-21 23:54:00,
2013-06-21 16:59:00,69.1,55.2,30.17,West,270,8.7,8.7,61,0.00,,,0.00,WUHU216HW,2013-06-21 23:59:00,
2013-06-21 17:04:00,68.8,55.2,30.17,SW,225,6.3,8.7,62,0.00,,,0.00,WUHU216HW,2013-06-22 00:04:00,
2013-06-21 17:09:00,68.6,55.0,30.17,West,270,6.0,8.5,62,0.00,,,0.00,WUHU216HW,2013-06-22 00:09:00,
2013-06-21 17:14:00,68.8,55.2,30.17,WSW,248,5.4,8.5,62,0.00,,,0.00,WUHU216HW,2013-06-22 00:14:00,
2013-06-21 17:19:00,68.6,55.0,30.17,SW,225,4.7,7.4,62,0.00,,,0.00,WUHU216HW,2013-06-22 00:19:00,
2013-06-21 17:24:00,68.6,55.0,30.17,WSW,248,7.4,7.4,62,0.00,,,0.00,WUHU216HW,2013-06-22 00:24:00,
2013-06-21 17:29:00,68.6,55.0,30.16,SW,225,2.5,7.4,62,0.00,,,0.00,WUHU216HW,2013-06-22 00:29:00,
2013-06-21 17:34:00,68.6,55.0,30.17,SW,225,4.7,7.4,62,0.00,,,0.00,WUHU216HW,2013-06-22 00:34:00,
2013-06-21 17:39:00,68.4,54.5,30.16,WSW,248,5.6,7.4,61,0.00,,,0.00,WUHU216HW,2013-06-22 00:39:00,
2013-06-21 17:44:00,68.4,54.5,30.16,WSW,248,4.7,6.9,61,0.00,,,0.00,WUHU216HW,2013-06-22 00:44:00,
2013-06-21 17:49:00,68.4,54.5,30.16,West,270,5.6,6.9,61,0.00,,,0.00,WUHU216HW,2013-06-22 00:49:00,
2013-06-21 17:54:00,68.4,54.5,30.16,SW,225,7.6,7.6,61,0.00,,,0.00,WUHU216HW,2013-06-22 00:54:00,
2013-06-21 17:59:00,68.4,54.5,30.16,WSW,248,6.5,7.6,61,0.00,,,0.00,WUHU216HW,2013-06-22 00:59:00,
2013-06-21 18:04:00,68.4,54.5,30.16,SW,225,4.0,7.8,61,0.00,,,0.00,WUHU216HW,2013-06-22 01:04:00,
2013-06-21 18:09:00,68.4,54.5,30.16,WSW,248,7.4,7.8,61,0.00,,,0.00,WUHU216HW,2013-06-22 01:09:00,
2013-06-21 18:14:00,68.2,54.3,30.16,WSW,248,6.0,7.6,61,0.00,,,0.00,WUHU216HW,2013-06-22 01:14:00,
2013-06-21 18:19:00,68.0,54.6,30.16,WSW,248,6.3,7.8,62,0.00,,,0.00,WUHU216HW,2013-06-22 01:19:00,
2013-06-21 18:24:00,68.0,54.6,30.16,WNW,293,5.8,7.8,62,0.00,,,0.00,WUHU216HW,2013-06-22 01:24:00,
2013-06-21 18:29:00,68.0,54.6,30.16,WSW,248,6.3,6.9,62,0.00,,,0.00,WUHU216HW,2013-06-22 01:29:00,
2013-06-21 18:34:00,67.7,54.2,30.16,WSW,248,2.5,6.5,62,0.00,,,0.00,WUHU216HW,2013-06-22 01:34:00,
2013-06-21 18:39:00,67.5,53.6,30.16,West,270,2.7,5.4,61,0.00,,,0.00,WUHU216HW,2013-06-22 01:39:00,
2013-06-21 18:44:00,67.3,53.8,30.16,SW,225,7.4,7.4,62,0.00,,,0.00,WUHU216HW,2013-06-22 01:44:00,
2013-06-21 18:49:00,67.0,53.6,30.16,West,270,6.9,7.4,62,0.00,,,0.00,WUHU216HW,2013-06-22 01:49:00,
2013-06-21 18:54:00,67.0,53.6,30.16,SW,225,3.4,6.9,62,0.00,,,0.00,WUHU216HW,2013-06-22 01:54:00,
2013-06-21 18:59:00,66.8,53.4,30.16,WSW,248,5.4,6.9,62,0.00,,,0.00,WUHU216HW,2013-06-22 01:59:00,
2013-06-21 19:04:00,66.4,53.0,30.16,WSW,248,3.1,6.9,62,0.00,,,0.00,WUHU216HW,2013-06-22 02:04:00,
2013-06-21 19:09:00,66.1,52.7,30.16,WSW,248,3.4,7.2,62,0.00,,,0.00,WUHU216HW,2013-06-22 02:09:00,
2013-06-21 19:14:00,65.9,52.9,30.16,West,270,5.6,7.2,63,0.00,,,0.00,WUHU216HW,2013-06-22 02:14:00,
2013-06-21 19:19:00,65.9,52.9,30.16,West,270,3.4,6.3,63,0.00,,,0.00,WUHU216HW,2013-06-22 02:19:00,
2013-06-21 19:24:00,65.9,52.9,30.15,SW,225,4.9,6.3,63,0.00,,,0.00,WUHU216HW,2013-06-22 02:24:00,
2013-06-21 19:29:00,65.7,52.8,30.15,WSW,248,6.3,6.3,63,0.00,,,0.00,WUHU216HW,2013-06-22 02:29:00,
2013-06-21 19:34:00,65.3,52.4,30.15,WSW,248,2.9,6.3,63,0.00,,,0.00,WUHU216HW,2013-06-22 02:34:00,
2013-06-21 19:39:00,65.5,53.0,30.15,WSW,248,2.2,4.7,64,0.00,,,0.00,WUHU216HW,2013-06-22 02:39:00,
2013-06-21 19:44:00,65.2,52.7,30.15,West,270,4.3,4.3,64,0.00,,,0.00,WUHU216HW,2013-06-22 02:44:00,
2013-06-21 19:49:00,65.2,52.7,30.15,West,270,3.4,5.4,64,0.00,,,0.00,WUHU216HW,2013-06-22 02:49:00,
2013-06-21 19:54:00,65.0,52.5,30.15,WSW,248,3.4,5.4,64,0.00,,,0.00,WUHU216HW,2013-06-22 02:54:00,
2013-06-21 19:59:00,64.8,52.3,30.15,SW,225,2.9,4.3,64,0.00,,,0.00,WUHU216HW,2013-06-22 02:59:00,
2013-06-21 20:04:00,64.4,51.9,30.15,SW,225,2.9,4.7,64,0.00,,,0.00,WUHU216HW,2013-06-22 03:04:00,
2013-06-21 20:09:00,64.4,52.4,30.15,SW,225,0.4,4.7,65,0.00,,,0.00,WUHU216HW,2013-06-22 03:09:00,
2013-06-21 20:14:00,64.1,52.0,30.15,SE,135,0.4,1.8,65,0.00,,,0.00,WUHU216HW,2013-06-22 03:14:00,
2013-06-21 20:19:00,63.9,51.8,30.15,WSW,248,0.4,1.3,65,0.00,,,0.00,WUHU216HW,2013-06-22 03:19:00,
2013-06-21 20:24:00,63.7,51.7,30.15,NNW,338,0.2,1.3,65,0.00,,,0.00,WUHU216HW,2013-06-22 03:24:00,
2013-06-21 20:29:00,63.5,51.6,30.15,West,270,0.9,0.9,65,0.00,,,0.00,WUHU216HW,2013-06-22 03:29:00,
2013-06-21 20:34:00,63.0,51.4,30.15,West,270,0.2,1.8,66,0.00,,,0.00,WUHU216HW,2013-06-22 03:34:00,
2013-06-21 20:39:00,62.8,51.3,30.15,ESE,113,1.8,1.8,66,0.00,,,0.00,WUHU216HW,2013-06-22 03:39:00,
2013-06-21 20:44:00,62.3,50.8,30.15,SSW,203,1.1,3.1,66,0.00,,,0.00,WUHU216HW,2013-06-22 03:44:00,
2013-06-21 20:49:00,61.9,50.9,30.15,SE,135,2.5,3.1,67,0.00,,,0.00,WUHU216HW,2013-06-22 03:49:00,
2013-06-21 20:54:00,61.6,50.5,30.15,SE,135,0.4,2.5,67,0.00,,,0.00,WUHU216HW,2013-06-22 03:54:00,
2013-06-21 20:59:00,61.2,50.6,30.15,SE,135,2.5,2.7,68,0.00,,,0.00,WUHU216HW,2013-06-22 03:59:00,
2013-06-21 21:04:00,60.8,49.9,30.15,SSE,158,0.0,2.7,67,0.00,,,0.00,WUHU216HW,2013-06-22 04:04:00,
2013-06-21 21:09:00,60.5,49.5,30.15,SE,135,0.0,2.5,67,0.00,,,0.00,WUHU216HW,2013-06-22 04:09:00,
2013-06-21 21:14:00,60.1,49.6,30.15,ESE,113,0.0,1.6,68,0.00,,,0.00,WUHU216HW,2013-06-22 04:14:00,
2013-06-21 21:19:00,59.8,49.2,30.15,ESE,113,1.1,1.1,68,0.00,,,0.00,WUHU216HW,2013-06-22 04:19:00,
2013-06-21 21:24:00,59.4,49.2,30.15,East,90,0.0,1.8,69,0.00,,,0.00,WUHU216HW,2013-06-22 04:24:00,
2013-06-21 21:29:00,59.0,48.9,30.14,NE,45,1.8,2.0,69,0.00,,,0.00,WUHU216HW,2013-06-22 04:29:00,
2013-06-21 21:34:00,58.5,48.3,30.15,ENE,68,1.1,2.0,69,0.00,,,0.00,WUHU216HW,2013-06-22 04:34:00,
2013-06-21 21:39:00,58.1,48.4,30.15,NNE,23,0.7,1.8,70,0.00,,,0.00,WUHU216HW,2013-06-22 04:39:00,
2013-06-21 21:44:00,57.8,48.4,30.15,NNE,23,0.7,1.1,71,0.00,,,0.00,WUHU216HW,2013-06-22 04:44:00,
2013-06-21 21:49:00,57.4,48.1,30.15,NE,45,1.8,1.8,71,0.00,,,0.00,WUHU216HW,2013-06-22 04:49:00,
2013-06-21 21:54:00,56.9,47.9,30.14,ENE,68,1.8,2.7,72,0.00,,,0.00,WUHU216HW,2013-06-22 04:54:00,
2013-06-21 21:59:00,56.5,48.0,30.15,South,180,0.9,2.7,73,0.00,,,0.00,WUHU216HW,2013-06-22 04:59:00,
2013-06-21 22:04:00,56.3,47.8,30.15,West,270,0.9,2.2,73,0.00,,,0.00,WUHU216HW,2013-06-22 05:04:00,
2013-06-21 22:09:00,56.2,47.6,30.15,West,270,0.0,2.0,73,0.00,,,0.00,WUHU216HW,2013-06-22 05:09:00,
2013-06-21 22:14:00,56.0,47.4,30.15,SSW,203,0.0,0.4,73,0.00,,,0.00,WUHU216HW,2013-06-22 05:14:00,
2013-06-21 22:19:00,55.8,47.6,30.15,NNW,338,1.1,1.1,74,0.00,,,0.00,WUHU216HW,2013-06-22 05:19:00,
2013-06-21 22:24:00,55.4,47.3,30.15,ESE,113,1.8,1.8,74,0.00,,,0.00,WUHU216HW,2013-06-22 05:24:00,
2013-06-21 22:29:00,55.1,47.3,30.15,ENE,68,2.5,2.9,75,0.00,,,0.00,WUHU216HW,2013-06-22 05:29:00,
2013-06-21 22:34:00,54.7,47.3,30.14,NE,45,1.3,2.9,76,0.00,,,0.00,WUHU216HW,2013-06-22 05:34:00,
2013-06-21 22:39:00,54.5,47.1,30.15,NE,45,1.3,2.0,76,0.00,,,0.00,WUHU216HW,2013-06-22 05:39:00,
2013-06-21 22:44:00,54.4,47.0,30.15,NE,45,0.7,2.0,76,0.00,,,0.00,WUHU216HW,2013-06-22 05:44:00,
2013-06-21 22:49:00,54.2,46.8,30.14,NE,45,0.4,0.9,76,0.00,,,0.00,WUHU216HW,2013-06-22 05:49:00,
2013-06-21 22:54:00,54.0,46.6,30.15,NE,45,1.3,1.3,76,0.00,,,0.00,WUHU216HW,2013-06-22 05:54:00,
2013-06-21 22:59:00,53.6,46.6,30.15,ENE,68,1.3,1.8,77,0.00,,,0.00,WUHU216HW,2013-06-22 05:59:00,
2013-06-21 23:04:00,53.5,46.8,30.15,ENE,68,2.0,2.2,78,0.00,,,0.00,WUHU216HW,2013-06-22 06:04:00,
2013-06-21 23:09:00,53.1,46.4,30.14,NE,45,1.1,2.5,78,0.00,,,0.00,WUHU216HW,2013-06-22 06:09:00,
2013-06-21 23:14:00,52.9,46.3,30.14,NNE,23,0.4,2.5,78,0.00,,,0.00,WUHU216HW,2013-06-22 06:14:00,
2013-06-21 23:19:00,52.9,46.3,30.14,NNE,23,1.1,1.3,78,0.00,,,0.00,WUHU216HW,2013-06-22 06:19:00,
2013-06-21 23:24:00,52.6,45.9,30.14,ENE,68,2.2,2.2,78,0.00,,,0.00,WUHU216HW,2013-06-22 06:24:00,
2013-06-21 23:29:00,52.6,46.3,30.14,NE,45,1.8,2.7,79,0.00,,,0.00,WUHU216HW,2013-06-22 06:29:00,
2013-06-21 23:34:00,52.4,46.4,30.14,ENE,68,3.1,3.1,80,0.00,,,0.00,WUHU216HW,2013-06-22 06:34:00,
2013-06-21 23:39:00,52.2,46.3,30.14,ENE,68,2.0,3.1,80,0.00,,,0.00,WUHU216HW,2013-06-22 06:39:00,
2013-06-21 23:44:00,52.2,46.3,30.14,ENE,68,1.8,2.7,80,0.00,,,0.00,WUHU216HW,2013-06-22 06:44:00,
2013-06-21 23:50:00,52.0,46.1,30.14,ENE,68,1.8,2.2,80,0.00,,,0.00,WUHU216HW,2013-06-22 06:50:00,
2013-06-21 23:55:00,52.0,46.1,30.14,East,90,0.0,2.0,80,0.00,,,0.00,WUHU216HW,2013-06-22 06:55:00,